STARLINK-1596, 46141

Orbit data source: Space-Track

STARLINK-1596, 46141 is a payload satellite owned by SpaceX/Seattle (US) in LEO that was launched on Tue, 18 Aug 2020 UTC via an FALCON 9 launch vehicle from the Air Force Eastern Test Range (AFETR). Payload-class satellites include a variety of spacecraft equipped with specific instruments for various scientific and technological missions. These include communications satellites like Starlink; space stations such as the ISS; scientific satellites like the Hubble; Earth observation satellites from companies like Planet Labs, Umbra, and HawkEye 360; GPS; miniature CubeSats for education and research; and military/defense satellites.

Loading next visibility...
Identifier
46141, 2020-057AA
Orbit
LEO
Country
Flag of USUS
Related business
Manufacturer
SpaceX/Seattle
Mission
Partially operational Commercial Communications
Bus & Motor
STARLINK, Unknown motor
Mass
260 kg wet, ~248 kg dry
Launch date (UTC)
2020-08-18 (6 years ago)
Launch vehicle
FALCON 9
Launch site
Air Force Eastern Test Range (AFETR)
Object type
Payload
Rocket body
Debris
Shape & HBR
Box + 1 Pan, 10.1 m
Radar Cross Section
13.562 m², Large (>1 m²)

Expand to show TLE details & history
Last TLE update: 9 hours ago

TLE from 9 hours ago
0 STARLINK-1596
1 46141U 20057AA  26150.56136882  .00093874  00000-0  12247-2 0  9992
2 46141  53.0349 196.9957 0006995   3.0533 357.0520 15.57925252319986
Epoch: 2026-05-30T13:28Z
TLE epoch observation values (Epoch: 2026-05-30T13:28:22.266Z)
Latitude
0.00003°
Longitude
106.82732°
Altitude
389.829 km
Speed
7.68 km/s
True Right ascension
13h 07m 58s
True Declination
0° 00' 00"
Sunlit
Object was in full shadow at epoch
Visualization orbit readout
Latitude
Unknown
Longitude
Unknown
Altitude
Unknown
Speed
Unknown
Apparent Right ascension
Unknown
Apparent Declination
Unknown
Sunlit
N/A
Visualization observer readout
Local Sidereal Time
08:28:34
Azimuth
Unknown
Elevation
Unknown
Doppler factor
Unknown
Orbital elements
Apogee altitude
398.68 km
Perigee altitude
389.205 km
Semi-major axis
6,772.079 km
Eccentricity
0.0007
Inclination
53.0349°
RAAN
196.9957°
Arg. of periapsis
3.0533°
True anomaly
357.04787°
Mean anomaly
357.052°
Eccentric anomaly
357.04994°
Mean motion
3.89458 °/min
Orbital period
92.44 mins
BSTAR
0.0012247
Loading maneuver chart data...
Computing Atmospheric mass density...

Documentation

Showing up to 5 results
|